Probability
0 0 0 0 0 0 0 0 0 3 10 26 26 23 26 26 23 26 23 26 29 32 32 35 35 39 39 42 48 52 55 55 58 55 58 55 55 55 45 42 35 32 32 32
0 0 0 0 0 0 0 0 3 10 13 19 19 19 23 23 23 26 29 26 29 29 29 35 39 39 42 45 48 48 45 45 52 52 58 52 52 42 35 29 29 32 29 32
0 0 0 0 3 3 3 3 3 6 10 13 19 16 19 23 26 32 23 32 29 35 42 45 45 42 45 48 48 45 42 48 52 48 42 48 35 35 35 35 35 29 32 26
3 3 0 0 0 3 6 10 3 10 13 10 13 16 19 23 26 26 26 26 35 45 45 45 52 48 48 42 42 42 42 45 42 45 42 35 32 32 35 35 35 35 26 23
10 3 0 0 0 0 3 3 3 3 3 3 6 16 19 16 19 26 26 23 29 29 39 48 48 45 42 39 42 42 39 42 42 39 35 32 32 32 35 35 35 29 26 19
10 3 0 0 0 0 3 0 6 6 0 3 6 13 13 16 16 19 23 29 26 32 35 52 52 45 39 35 35 35 39 39 39 39 35 32 32 35 32 35 35 29 26 23
3 0 0 6 0 0 0 6 10 10 10 6 13 16 16 16 16 26 29 26 23 26 39 45 52 45 35 35 35 39 39 39 39 35 32 35 39 39 32 32 32 29 26 26
3 0 0 0 0 3 13 16 10 10 13 13 13 13 13 16 19 19 23 26 23 35 42 45 52 52 42 42 39 39 39 39 39 39 32 29 35 35 32 32 32 29 29 29
3 3 6 3 10 10 13 10 10 10 6 6 6 10 6 10 19 19 16 19 26 29 32 42 48 48 42 45 45 39 39 42 42 42 35 35 35 32 32 35 26 29 29 26
0 6 3 3 0 0 0 6 3 3 6 6 3 3 6 10 16 16 19 19 23 26 26 29 29 39 35 35 35 32 29 35 32 32 32 32 29 32 32 26 26 23 26 26
0 3 3 3 0 0 0 0 3 3 0 0 6 6 3 13 16 19 16 26 26 29 29 26 35 35 29 29 32 29 26 26 29 29 26 29 26 19 19 19 16 16 23 23
0 0 0 0 0 0 3 3 3 3 0 0 3 3 10 13 13 13 16 26 26 26 19 23 32 29 29 26 23 26 23 26 23 23 23 19 13 10 6 10 10 6 6 6
0 0 0 0 0 0 3 3 3 3 3 3 3 3 6 13 13 13 16 19 19 19 19 23 29 26 23 23 23 26 26 23 16 19 23 16 16 13 10 6 3 0 0 0
0 0 0 0 0 0 3 6 3 3 3 3 3 6 6 16 13 10 13 13 16 13 16 23 19 19 19 23 23 19 19 10 13 13 10 13 10 6 10 10 10 6 0 0
0 0 0 0 0 0 3 3 6 3 3 3 6 6 10 13 13 6 6 6 10 10 10 10 10 10 16 13 13 13 10 10 6 6 6 6 6 6 6 6 10 10 6 6
0 0 0 0 0 0 0 3 3 3 3 6 3 3 3 3 10 10 10 6 6 10 10 6 10 10 13 10 10 10 13 6 6 6 3 3 6 6 6 3 3 3 0 3
0 0 0 0 0 0 0 3 3 3 3 3 3 3 0 0 6 6 3 3 3 6 6 6 6 10 10 10 10 10 10 10 6 6 6 3 3 3 3 3 3 3 0 0
0 0 0 0 0 0 0 3 3 3 3 0 0 0 0 0 3 10 6 3 3 3 10 10 10 10 10 10 6 6 10 10 6 6 10 10 6 6 6 6 3 3 0 0
0 0 0 0 0 0 0 0 3 3 3 0 0 0 3 6 6 6 3 3 3 3 10 10 3 6 10 10 6 6 10 10 10 10 10 6 6 6 6 6 6 0 0 0
0 0 0 0 0 0 0 0 3 3 3 3 3 3 3 3 6 3 3 6 6 6 10 10 6 6 10 10 3 6 10 10 10 10 10 6 6 6 6 6 6 3 0 0
0 0 0 0 0 0 0 0 3 3 6 3 3 3 3 3 3 3 10 3 10 13 6 3 6 6 6 6 0 6 10 10 13 13 10 10 6 6 6 6 3 3 3 0
0 0 0 0 0 0 0 3 3 6 6 3 3 6 6 0 3 6 10 10 10 6 6 3 6 3 3 0 3 6 10 13 13 10 10 10 10 6 6 3 3 6 3 6
0 0 0 0 0 3 3 3 3 3 0 0 3 3 3 3 6 3 3 6 3 0 3 3 3 0 0 0 3 6 6 10 10 10 10 10 10 10 6 6 6 6 6 6
0 3 3 3 3 3 3 3 0 0 0 0 0 0 6 6 3 3 3 0 0 0 0 0 0 0 0 6 6 6 6 6 6 6 6 6 6 6 13 10 6 6 6 3
0 3 3 0 0 0 0 0 0 0 0 0 0 0 0 0 3 3 6 0 0 0 0 0 0 0 0 3 3 0 3 6 6 6 6 6 6 6 10 10 6 6 3 3
0 0 0 6 6 3 0 0 0 0 0 0 0 0 0 0 0 3 6 0 0 0 0 0 0 0 0 3 0 3 3 6 6 6 6 6 6 6 6 6 3 3 3 3
0 0 3 0 0 0 0 0 0 0 0 0 0 0 0 0 0 0 0 3 3 3 0 0 0 3 3 3 3 3 6 6 6 6 6 10 10 10 10 6 6 3 6 6
Height
5809 5810 5810 5811 5812 5813 5813 5815 5817 5817 5815 5814 5812 5813 5812 5812 5812 5810 5809 5809 5808 5808 5808 5808 5808 5809 5808 5808 5809 5809 5809 5809 5809 5810 5810 5810 5810 5810 5809 5809 5809 5809 5808 5808
5803 5804 5804 5805 5806 5807 5808 5808 5809 5809 5808 5807 5806 5805 5806 5805 5805 5805 5804 5803 5801 5800 5801 5801 5801 5801 5802 5802 5802 5802 5802 5802 5802 5802 5803 5803 5803 5803 5802 5802 5802 5801 5801 5801
5797 5797 5797 5798 5799 5800 5800 5801 5801 5801 5801 5799 5799 5799 5799 5799 5798 5797 5797 5797 5796 5795 5793 5794 5794 5794 5795 5795 5795 5795 5795 5795 5795 5795 5796 5796 5796 5795 5795 5794 5794 5794 5793 5793
5791 5792 5792 5794 5793 5794 5793 5793 5794 5793 5792 5792 5792 5792 5792 5792 5792 5791 5790 5789 5789 5788 5787 5787 5787 5787 5788 5788 5788 5788 5788 5788 5788 5788 5788 5788 5788 5788 5787 5787 5786 5786 5785 5786
5785 5785 5786 5787 5787 5786 5786 5786 5786 5786 5785 5785 5785 5785 5785 5785 5784 5783 5783 5782 5781 5781 5780 5780 5780 5780 5780 5780 5781 5781 5781 5781 5781 5781 5781 5781 5781 5780 5779 5779 5779 5778 5778 5778
5779 5779 5780 5781 5780 5779 5780 5779 5779 5779 5779 5779 5778 5779 5778 5777 5777 5776 5775 5774 5774 5772 5772 5773 5773 5773 5772 5772 5772 5773 5773 5773 5773 5773 5773 5773 5773 5772 5771 5771 5771 5770 5770 5770
5773 5773 5772 5773 5773 5774 5775 5773 5772 5772 5772 5772 5771 5772 5771 5770 5769 5769 5768 5767 5766 5765 5765 5765 5765 5765 5764 5764 5764 5764 5765 5765 5765 5765 5765 5765 5764 5764 5764 5763 5762 5762 5762 5762
5767 5766 5768 5766 5766 5767 5766 5766 5765 5765 5765 5765 5764 5764 5763 5763 5762 5761 5760 5759 5758 5757 5757 5757 5756 5756 5756 5756 5756 5756 5757 5757 5756 5756 5756 5756 5756 5755 5755 5755 5754 5754 5754 5754
5761 5762 5761 5760 5760 5759 5759 5758 5758 5758 5758 5757 5757 5756 5755 5754 5754 5753 5753 5752 5751 5749 5749 5748 5748 5748 5748 5748 5748 5748 5748 5748 5748 5748 5748 5748 5747 5747 5746 5746 5746 5746 5746 5746
5754 5754 5754 5753 5753 5752 5752 5751 5751 5750 5750 5750 5749 5748 5747 5746 5746 5745 5745 5744 5743 5742 5741 5740 5740 5740 5740 5740 5740 5739 5739 5739 5739 5739 5739 5739 5738 5738 5738 5739 5738 5737 5737 5738
5747 5748 5746 5746 5745 5745 5744 5744 5743 5743 5742 5741 5740 5740 5739 5739 5738 5737 5737 5736 5735 5734 5733 5732 5732 5732 5732 5732 5731 5731 5730 5730 5730 5731 5731 5730 5730 5731 5731 5731 5731 5730 5730 5730
5740 5740 5740 5739 5738 5737 5737 5736 5736 5735 5734 5734 5733 5733 5732 5731 5730 5730 5729 5728 5727 5727 5726 5725 5724 5724 5724 5724 5723 5723 5722 5722 5723 5723 5723 5722 5723 5723 5723 5723 5723 5723 5722 5722
5733 5732 5732 5732 5730 5729 5728 5728 5728 5727 5727 5726 5726 5725 5724 5724 5723 5722 5721 5721 5720 5719 5718 5717 5717 5716 5716 5716 5716 5715 5714 5714 5715 5715 5715 5715 5715 5715 5716 5716 5716 5715 5715 5715
5726 5725 5725 5724 5723 5722 5721 5721 5720 5720 5720 5719 5719 5718 5717 5716 5716 5715 5714 5713 5712 5712 5711 5710 5710 5709 5709 5709 5708 5707 5707 5707 5707 5708 5708 5708 5708 5708 5708 5708 5709 5709 5709 5708
5719 5718 5718 5717 5716 5715 5714 5714 5714 5713 5713 5712 5712 5711 5710 5709 5709 5708 5707 5706 5705 5704 5703 5703 5702 5702 5701 5701 5700 5700 5700 5700 5700 5700 5700 5701 5701 5701 5701 5701 5701 5701 5701 5701
5711 5711 5711 5710 5709 5709 5708 5708 5708 5707 5706 5706 5705 5704 5703 5702 5701 5701 5700 5699 5698 5697 5696 5695 5694 5694 5693 5693 5693 5693 5693 5693 5693 5693 5694 5694 5694 5694 5695 5695 5695 5695 5695 5695
5705 5705 5704 5704 5703 5703 5703 5702 5702 5701 5700 5699 5698 5698 5697 5696 5695 5694 5693 5692 5691 5690 5689 5688 5687 5686 5686 5685 5685 5685 5685 5685 5685 5686 5687 5687 5687 5688 5688 5688 5688 5689 5689 5689
5699 5699 5698 5698 5697 5697 5697 5696 5695 5694 5693 5693 5692 5691 5690 5689 5688 5688 5686 5686 5684 5683 5682 5681 5680 5679 5678 5678 5678 5677 5678 5678 5678 5679 5680 5680 5680 5681 5681 5682 5682 5682 5682 5682
5693 5693 5693 5692 5692 5692 5691 5690 5689 5688 5687 5687 5686 5685 5684 5683 5682 5681 5680 5679 5678 5677 5676 5675 5674 5672 5672 5671 5671 5670 5670 5671 5671 5672 5673 5673 5673 5674 5674 5675 5676 5676 5676 5676
5688 5687 5687 5687 5686 5686 5685 5684 5683 5682 5682 5681 5680 5679 5678 5677 5676 5675 5674 5673 5672 5671 5669 5668 5667 5666 5665 5665 5664 5663 5663 5664 5664 5665 5666 5666 5667 5667 5667 5668 5669 5669 5670 5670
5682 5682 5682 5681 5681 5680 5679 5678 5677 5677 5676 5675 5674 5673 5672 5672 5670 5670 5669 5668 5667 5665 5664 5663 5662 5660 5659 5659 5658 5658 5658 5659 5659 5660 5660 5660 5660 5661 5661 5662 5662 5663 5664 5664
5677 5677 5676 5676 5675 5675 5674 5672 5671 5671 5670 5669 5668 5667 5667 5666 5665 5664 5663 5663 5662 5660 5659 5658 5657 5656 5654 5654 5653 5653 5653 5653 5654 5655 5654 5654 5655 5655 5655 5656 5656 5657 5658 5657
5672 5672 5672 5671 5670 5669 5668 5667 5666 5665 5664 5663 5663 5662 5661 5660 5659 5658 5658 5657 5656 5655 5654 5653 5652 5651 5650 5649 5649 5649 5649 5649 5649 5649 5649 5649 5649 5649 5649 5650 5650 5651 5651 5651
5668 5667 5667 5666 5665 5664 5663 5661 5660 5659 5659 5658 5657 5656 5655 5655 5654 5653 5652 5651 5650 5649 5649 5648 5647 5646 5646 5645 5644 5644 5644 5644 5644 5644 5644 5644 5644 5644 5644 5644 5644 5644 5645 5645
5663 5662 5662 5661 5660 5659 5658 5657 5655 5654 5653 5652 5651 5651 5650 5649 5649 5648 5647 5646 5646 5645 5644 5643 5643 5642 5641 5641 5640 5640 5639 5639 5639 5639 5638 5639 5639 5639 5639 5639 5639 5639 5638 5638
5659 5658 5657 5656 5655 5654 5653 5652 5650 5649 5648 5647 5646 5646 5645 5644 5643 5642 5642 5641 5641 5640 5639 5638 5638 5637 5636 5636 5636 5635 5635 5634 5634 5633 5633 5634 5634 5634 5634 5633 5633 5633 5632 5632
5654 5653 5652 5651 5650 5649 5648 5647 5646 5645 5643 5642 5641 5641 5640 5639 5638 5637 5637 5636 5636 5635 5635 5634 5633 5633 5632 5632 5631 5631 5630 5630 5629 5629 5629 5629 5629 5628 5628 5628 5628 5627 5627 5626
Wind_Speed
20 20 21 21 22 22 22 23 24 24 26 27 27 27 27 27 27 27 27 27 27 27 27 27 26 25 26 25 25 25 26 26 26 26 25 25 25 26 26 27 27 27 27 26
21 21 20 22 22 22 23 23 25 27 28 29 29 30 29 27 26 27 28 29 29 28 28 27 26 26 26 26 27 27 26 26 26 25 25 25 25 25 26 26 27 27 27 27
22 21 20 22 22 23 24 25 26 28 28 29 29 30 29 27 25 26 28 29 29 30 29 29 27 26 26 26 27 27 26 26 26 26 26 26 26 26 25 25 26 26 27 27
20 21 22 22 21 23 25 25 27 28 29 29 28 28 28 28 28 27 28 28 28 27 27 28 28 27 27 27 27 27 27 27 27 27 26 26 27 26 26 26 26 26 26 26
19 20 22 21 21 22 24 24 24 27 27 27 27 27 27 26 26 27 28 30 29 29 29 28 27 27 28 28 28 28 28 27 27 26 26 27 27 27 27 27 26 27 27 27
21 21 22 21 23 24 24 24 25 25 26 28 28 27 27 26 26 28 29 29 29 29 29 28 28 28 28 28 29 30 30 28 27 27 27 27 27 27 27 27 27 27 27 27
21 22 22 23 23 23 24 25 25 26 26 27 28 27 27 27 28 29 30 29 29 29 28 28 28 28 28 29 29 29 29 28 28 28 28 28 28 28 28 27 27 27 26 26
23 23 24 25 25 25 24 24 25 26 27 28 29 29 28 28 28 28 29 30 29 29 28 28 28 28 28 28 28 28 28 28 28 28 28 28 28 29 29 28 28 27 27 26
23 24 25 25 25 25 25 25 25 26 27 28 29 30 30 29 29 29 29 29 29 28 29 29 28 28 28 28 28 28 28 29 29 29 28 29 29 29 28 27 27 27 27 26
23 24 25 26 26 26 27 27 27 27 27 28 29 30 31 30 30 29 28 28 28 29 29 28 28 29 28 28 28 29 29 29 30 29 29 29 29 29 28 27 26 26 25 25
25 24 24 24 25 26 26 27 27 27 26 26 27 28 27 28 29 28 28 27 28 28 28 27 27 28 28 28 28 27 27 28 29 28 28 28 28 28 27 27 26 26 25 26
25 24 25 24 25 26 27 26 26 26 26 27 27 27 26 27 28 28 28 28 28 28 28 27 27 27 27 27 27 27 27 26 26 27 27 28 28 27 26 26 26 26 26 27
25 25 25 25 25 25 26 26 26 25 26 26 26 27 27 27 27 27 26 27 27 27 27 27 26 26 26 26 27 27 26 25 26 26 26 27 26 26 26 26 26 27 27 27
24 25 25 24 24 24 24 24 24 24 24 25 25 25 25 25 25 26 27 27 28 27 27 26 26 26 26 26 27 26 26 26 26 26 25 25 25 25 25 25 26 25 25 25
23 24 25 24 22 22 23 23 23 23 24 23 23 23 23 24 24 25 25 26 27 27 27 26 26 26 26 26 27 26 25 25 25 25 25 24 24 24 24 23 23 23 23 22
23 23 24 23 22 22 22 23 23 23 23 22 22 22 22 23 24 24 24 25 25 25 25 24 25 25 25 26 26 26 26 26 25 24 23 23 23 23 22 21 21 20 20 20
22 21 21 21 21 21 21 22 23 23 23 22 22 22 22 22 23 23 23 23 23 22 23 23 23 24 23 23 24 25 24 24 24 23 22 22 22 22 21 20 21 21 20 20
21 21 20 20 20 21 21 21 22 23 23 22 22 22 21 21 21 22 22 22 22 21 21 21 23 23 22 21 22 22 23 22 21 21 20 21 21 22 22 22 22 22 21 20
20 20 20 20 21 21 21 21 21 21 22 22 22 22 21 21 21 21 20 21 21 21 21 21 22 22 21 22 22 21 20 19 19 19 20 21 21 22 23 23 23 22 21 19
19 19 19 19 19 20 20 20 20 21 21 21 21 20 20 20 20 19 20 20 20 20 20 21 21 21 21 20 20 19 18 17 16 17 18 19 20 20 20 20 19 19 20 19
18 18 18 18 18 19 20 20 20 20 20 20 20 19 19 18 18 18 18 18 18 18 18 18 18 19 18 18 18 18 17 16 15 16 16 17 18 18 18 18 19 19 19 20
17 17 17 18 18 19 19 20 20 20 19 19 18 18 18 18 17 17 17 17 17 16 16 17 17 16 16 16 16 15 15 15 15 15 16 17 18 18 19 18 19 19 19 20
17 17 17 17 17 18 18 18 18 18 18 18 18 18 18 17 17 16 16 16 16 16 16 16 16 15 15 15 15 14 14 14 14 15 15 16 17 18 19 19 19 19 20 20
17 17 16 16 16 16 17 17 17 17 18 18 17 17 17 16 16 16 16 16 16 16 16 16 16 16 16 15 14 14 14 15 15 15 15 15 15 16 16 17 17 18 19 20
16 16 16 16 16 16 16 15 15 16 16 16 16 16 16 16 16 16 15 15 16 16 16 16 16 16 16 16 16 15 15 15 16 16 16 16 16 16 16 17 18 18 18 19
16 16 16 16 16 15 15 15 15 15 15 16 16 15 16 16 16 15 15 16 16 16 16 15 15 15 15 16 15 14 14 14 15 16 16 15 15 16 17 17 17 18 18 18
15 15 15 15 15 15 15 15 15 15 15 15 15 16 16 16 16 15 15 15 15 15 15 14 14 14 14 14 14 13 14 15 15 15 15 15 15 16 16 17 17 17 17 18
Wind_Direction
248 252 254 257 253 251 252 254 258 260 259 264 267 266 266 271 275 274 271 273 273 273 275 275 274 273 272 272 275 275 274 274 276 277 278 279 280 281 282 283 285 284 284 282
252 253 253 256 259 260 256 253 256 259 261 263 264 265 267 270 274 273 271 275 276 275 274 274 276 274 273 274 274 273 271 273 276 278 280 280 280 280 281 282 282 282 282 281
254 255 259 256 258 259 258 255 255 258 263 264 264 264 266 269 273 274 274 274 276 278 279 274 274 274 272 272 272 272 274 274 276 277 277 279 279 279 280 280 280 280 279 279
256 258 259 261 261 260 259 259 258 260 265 265 266 268 269 269 270 271 272 275 276 276 276 275 274 274 274 273 273 273 274 274 275 277 276 278 279 279 279 279 279 279 279 278
257 259 262 262 262 261 259 261 262 261 263 265 267 269 268 270 271 272 273 274 275 274 276 276 274 273 273 272 273 273 273 273 273 275 277 278 278 278 278 278 278 278 278 277
258 260 258 258 261 261 262 265 263 262 263 265 267 268 270 272 273 275 275 276 275 275 273 274 274 274 274 273 272 271 271 272 272 273 275 276 277 278 278 277 277 278 276 275
259 261 260 260 262 265 263 265 267 266 264 265 267 270 270 273 274 274 275 276 277 276 275 275 275 274 274 274 273 271 270 271 272 274 275 274 275 276 278 277 276 276 276 276
259 260 260 263 265 264 266 267 268 269 268 267 268 270 271 271 274 274 274 275 276 276 275 276 276 273 273 272 271 271 271 271 270 272 274 274 274 275 275 276 276 276 275 275
259 260 266 270 270 268 268 269 268 268 269 268 268 268 269 272 273 275 275 277 277 277 276 275 275 274 273 272 271 270 271 269 268 272 273 274 273 273 273 273 275 276 275 273
263 264 266 269 269 268 269 271 271 270 270 270 269 269 271 271 274 274 275 278 278 278 278 274 274 274 274 272 271 270 271 270 270 273 273 273 272 272 273 272 273 274 273 272
265 265 268 269 269 269 270 270 272 273 273 274 274 272 273 274 275 274 274 277 279 281 281 277 276 274 273 271 271 271 271 271 270 273 272 271 271 272 272 271 271 272 272 272
266 267 269 270 272 272 271 271 273 273 273 273 274 275 274 273 272 274 277 276 277 279 279 279 277 274 272 271 272 272 271 269 269 271 272 270 270 270 269 270 270 271 273 273
268 270 272 273 276 277 273 274 276 274 274 275 277 276 273 273 273 273 275 276 277 278 279 279 278 275 272 272 273 273 270 267 268 269 270 269 269 270 270 269 269 271 273 273
268 269 273 276 278 279 276 276 276 277 277 278 277 276 275 275 275 275 276 277 278 279 279 279 278 276 273 272 273 272 269 268 268 269 270 270 270 270 271 270 269 270 272 274
266 269 272 276 279 277 276 276 276 276 277 278 278 278 278 279 279 280 280 280 280 279 279 277 275 275 274 271 270 270 268 268 269 268 268 269 270 271 271 271 269 270 270 273
267 267 271 274 275 276 277 276 277 277 279 280 279 278 279 280 280 281 282 282 282 280 279 277 275 275 274 271 270 268 268 267 266 265 265 267 269 269 269 270 270 271 269 271
272 271 272 273 273 274 276 277 277 279 280 281 280 280 280 280 280 281 283 284 284 282 282 282 280 279 275 270 269 268 267 267 263 263 265 266 267 267 267 267 268 270 271 272
275 275 273 273 276 277 277 278 279 279 280 280 280 279 281 283 282 282 284 286 284 283 284 284 283 282 276 271 271 269 266 263 260 262 264 265 265 264 264 266 267 269 267 270
276 275 275 275 276 279 281 281 280 280 281 281 280 280 281 282 282 285 285 286 287 284 284 285 284 284 279 274 270 268 266 264 260 261 265 267 267 268 268 267 267 267 267 271
276 276 276 277 278 281 283 283 283 282 282 283 281 281 281 284 287 288 287 288 289 287 284 282 283 284 281 277 273 271 268 269 266 264 267 268 269 269 267 266 265 266 269 273
276 277 277 277 280 283 285 285 284 283 283 284 283 282 282 284 285 286 287 288 290 290 289 287 287 286 281 278 276 273 272 271 270 270 271 273 272 270 269 269 268 269 272 274
278 279 279 280 284 285 285 284 284 283 283 284 283 282 284 286 285 286 287 289 290 290 289 290 290 286 282 280 276 273 272 271 271 273 274 274 274 273 272 272 272 271 273 275
280 281 281 282 283 285 286 286 285 283 282 283 283 282 282 284 284 284 286 288 289 290 290 289 288 284 282 281 278 275 273 271 271 274 276 277 276 274 272 271 270 271 271 275
280 280 281 282 284 287 289 289 287 284 283 283 284 283 283 283 283 284 285 284 283 286 289 288 285 284 284 282 279 278 277 274 272 275 278 279 278 276 273 272 272 272 274 278
279 279 280 283 285 288 291 292 288 286 284 284 284 286 286 285 285 285 284 282 281 284 285 285 282 281 280 278 280 280 279 277 277 278 279 278 277 275 275 275 275 276 278 282
284 282 281 282 286 290 291 291 291 291 289 287 286 287 289 288 287 284 282 281 281 284 285 286 281 277 277 279 282 278 277 280 279 275 275 276 275 274 276 278 279 280 280 283
287 284 285 287 288 288 289 290 292 292 292 291 287 285 287 287 286 285 285 283 282 283 284 283 279 277 280 281 281 281 281 282 281 279 278 278 278 279 278 279 280 281 281 284